Regional Weather Roundup
Issued by NWS

Home | Current Version | Previous Version | Text Only | Print | Product List | Glossary Off
Versions: 1 2 3 4 5 6 7 8 9 10 11 12 13 14 15 16 17 18 19 20 21 22 23 24 25 26 27 28 29 30 31 32 33 34 35 36 37 38 39 40 41 42 43 44 45 46 47 48 49 50

000
ASUS43 KLMK 220010
RWRKY
KENTUCKY REGIONAL WEATHER ROUNDUP
NATIONAL WEATHER SERVICE LOUISVILLE KY
800 PM EDT MON JUL 21 2014

NOTE "FAIR" INDICATES FEW OR NO CLOUDS BELOW 12,000 FEET
WITH NO SIGNIFICANT WEATHER AND/OR OBSTRUCTIONS TO VISIBILITY.

KYZ001>023-026-027-061>063-070>075-220100-
WESTERN AND SOUTH CENTRAL KENTUCKY

CITY           SKY/WX    TMP DP  RH WIND       PRES   REMARKS
PADUCAH        SUNNY     85  65  51 NW5       30.05S
HENDERSON      SUNNY     84  64  51 NW3       30.04S
OWENSBORO      SUNNY     86  65  49 VRB6      30.05S
HOPKINSVILLE   SUNNY     86  66  50 NE5       30.04R
BOWLING GREEN  SUNNY     88  65  46 E3        30.04S HX  90
GLASGOW        SUNNY     86  65  49 E5        30.04S
$$

KYZ024-025-028>034-038-045-046-053-220100-
NORTH CENTRAL KENTUCKY

CITY           SKY/WX    TMP DP  RH WIND       PRES   REMARKS
LOUISVILLE/SDF MOSUNNY   86  65  49 NE8       30.05S
LOUISVILLE/LOU MOSUNNY   87  63  44 N6        30.06S
FORT KNOX      SUNNY     84  69  60 N3        30.05S
$$

KYZ035>037-039>044-047>052-055>060-089>105-220100-
NORTHEAST KENTUCKY

CITY           SKY/WX    TMP DP  RH WIND       PRES   REMARKS
LEXINGTON      CLEAR     85  68  56 NE6       30.08S
COVINGTON      PTCLDY    85  65  51 N8        30.08S
FRANKFORT      CLEAR     85  66  53 NW6       30.06S
$$

KYZ054-064>069-076>088-106>120-220100-
SOUTHEAST KENTUCKY

CITY           SKY/WX    TMP DP  RH WIND       PRES   REMARKS
JACKSON        CLEAR     80  69  69 CALM      30.10S
LONDON         CLEAR     85  68  56 NE3       30.08S
SOMERSET       CLEAR     82  68  61 NE5       30.08S
MIDDLESBORO    MOCLDY    84  73  68 CALM      30.08S HX  90
MONTICELLO     HAZE      84  75  74 CALM      30.08S VSB 3/4 HX  92
$$



USA.gov is the U.S. government's official web portal to all federal, state and local government web resources and services.